Home > Weather > Bregenz > Past weeks

Flag for Austria Past Weather in Bregenz, Vorarlberg, Austria — Yesterday and Last 2 Weeks

Now
72 °F

Mild.


Feels Like: 76 °F
Forecast: 58 / 75 °F
Wind: 3 mph from South

Location: Bregenz

Current Time: Jul 31, 2016 at 2:30:48 AM

Latest Report: Jul 31, 2016 at 1:00 AM


Visibility: N/A

Pressure: 29.89 "Hg

Humidity: 58%

Dew Point: 56 °F

Location of BregenzLocation

Past Weather in Bregenz — Graph

°F

Bregenz Temperature Yesterday

Maximum temperature yesterday: 84 °F (at 5:00 PM)
Minimum temperature yesterday: 64 °F (at 5:00 AM)
Average temperature yesterday: 74 °F

High & Low Weather Summary for the Past Weeks

 TemperatureHumidityPressure
High88 °F (Jul 20, 7:00 PM)96% (Jul 16, 4:00 AM)30.36 "Hg (Jul 16, 4:00 AM)
Low49 °F (Jul 16, 5:00 AM)31% (Jul 20, 5:00 PM)29.86 "Hg (Jul 30, 5:00 PM)
Average70 °F70%30.06 "Hg
* Reported Jul 16 1:00 AM — Jul 31 1:00 AM, Bregenz, Weather by CustomWeather, © 2016

Note: Actual official high and low records may vary slightly from our data, if they occured in-between our weather recording intervals... More about our weather records

Advertising

Bregenz Weather History for the Previous 24 Hours

Scroll right to see more
 ConditionsComfort  
Time TempWeatherWind HumidityBarometerVisibility
1:00 AM
Sun, Jul 31
72 °FMild.3 mph58%29.89 "HgN/A
12:00 AM73 °FMild.5 mph56%29.88 "HgN/A
11:00 PM
Sat, Jul 30
74 °FMild.6 mph55%29.91 "HgN/A
10:00 PM75 °FFog.5 mph52%29.90 "HgN/A
9:00 PM76 °FMild.5 mph54%29.90 "HgN/A
8:00 PM76 °FMild.1 mph67%29.89 "HgN/A
7:00 PM80 °FWarm.1 mph54%29.88 "HgN/A
6:00 PM78 °FWarm.No wind69%29.88 "HgN/A
5:00 PM84 °FWarm.No wind45%29.86 "HgN/A
4:00 PM84 °FWarm.2 mph46%29.88 "HgN/A
3:00 PM83 °FWarm.2 mph45%29.89 "HgN/A
2:00 PM83 °FScattered clouds.2 mph46%29.88 "Hg22 mi
1:00 PM79 °FWarm.2 mph64%29.91 "HgN/A
12:00 PM80 °FWarm.1 mph58%29.91 "HgN/A
11:00 AM78 °FScattered clouds.3 mph56%29.91 "Hg22 mi
10:00 AM76 °FMild.3 mph60%29.93 "HgN/A
9:00 AM73 °FMild.2 mph63%29.96 "HgN/A
8:00 AM67 °FPassing clouds.1 mph82%29.98 "Hg22 mi
7:00 AM66 °FMild.1 mph80%29.98 "HgN/A
6:00 AM66 °FMild.3 mph80%29.98 "HgN/A
5:00 AM64 °FMild.1 mph84%29.98 "HgN/A
4:00 AM65 °FMild.1 mph85%29.99 "HgN/A
3:00 AM66 °FMild.1 mph82%29.99 "HgN/A
2:00 AM66 °FMild.1 mph80%29.98 "HgN/A
Weather by CustomWeather, © 2016

See weather overviewHow to use our weather pages